Time,TemperatureF,DewpointF,PressureIn,WindDirection,WindDirectionDegrees,WindSpeedMPH,WindSpeedGustMPH,Humidity,HourlyPrecipIn,Conditions,Clouds,dailyrainin,SoftwareType,DateUTC
2013-03-30 00:02:00,36.0,29.0,-100.00,WNW,290,0.0,0.0,77,0.00,,,0.00,,2013-03-30 04:02:00,
2013-03-30 00:13:00,36.0,29.0,-100.00,WNW,290,0.0,0.0,77,0.00,,,0.00,,2013-03-30 04:13:00,
2013-03-30 00:23:00,36.0,30.0,-100.00,WNW,290,0.0,0.0,78,0.00,,,0.00,,2013-03-30 04:23:00,
2013-03-30 00:33:00,36.0,30.0,-100.00,WNW,290,0.0,0.0,79,0.00,,,0.00,,2013-03-30 04:33:00,
2013-03-30 00:43:00,36.0,30.0,-100.00,WNW,290,0.0,0.0,79,0.00,,,0.00,,2013-03-30 04:43:00,
2013-03-30 00:52:00,35.0,29.0,-100.00,WNW,290,0.0,0.0,79,0.00,,,0.00,,2013-03-30 04:52:00,
2013-03-30 01:02:00,35.0,30.0,-100.00,WNW,290,0.0,0.0,81,0.00,,,0.00,,2013-03-30 05:02:00,
2013-03-30 01:12:00,35.0,30.0,-100.00,WNW,290,0.0,0.0,81,0.00,,,0.00,,2013-03-30 05:12:00,
2013-03-30 01:22:00,34.0,29.0,-100.00,WNW,290,0.0,0.0,82,0.00,,,0.00,,2013-03-30 05:22:00,
2013-03-30 01:32:00,34.0,29.0,-100.00,WNW,290,0.0,0.0,83,0.00,,,0.00,,2013-03-30 05:32:00,
2013-03-30 01:42:00,34.0,29.0,-100.00,WNW,290,0.0,0.0,83,0.00,,,0.00,,2013-03-30 05:42:00,
2013-03-30 01:52:00,34.0,30.0,-100.00,WNW,290,0.0,0.0,84,0.00,,,0.00,,2013-03-30 05:52:00,
2013-03-30 02:02:00,33.0,29.0,-100.00,WNW,290,0.0,0.0,85,0.00,,,0.00,,2013-03-30 06:02:00,
2013-03-30 02:12:00,33.0,29.0,-100.00,WNW,290,0.0,0.0,85,0.00,,,0.00,,2013-03-30 06:12:00,
2013-03-30 02:23:00,33.0,29.0,-100.00,WNW,290,0.0,0.0,86,0.00,,,0.00,,2013-03-30 06:23:00,
2013-03-30 02:32:00,32.0,29.0,-100.00,WNW,290,0.0,0.0,89,0.00,,,0.00,,2013-03-30 06:32:00,
2013-03-30 02:42:00,32.0,29.0,-100.00,WNW,290,0.0,0.0,89,0.00,,,0.00,,2013-03-30 06:42:00,
2013-03-30 02:52:00,32.0,29.0,-100.00,WNW,290,0.0,0.0,89,0.00,,,0.00,,2013-03-30 06:52:00,
2013-03-30 03:02:00,32.0,29.0,-100.00,WNW,290,0.0,0.0,90,0.00,,,0.00,,2013-03-30 07:02:00,
2013-03-30 03:12:00,32.0,29.0,-100.00,WNW,290,0.0,0.0,90,0.00,,,0.00,,2013-03-30 07:12:00,
2013-03-30 03:22:00,32.0,29.0,-100.00,WNW,290,0.0,0.0,90,0.00,,,0.00,,2013-03-30 07:22:00,
2013-03-30 03:32:00,31.0,29.0,-100.00,WNW,290,0.0,0.0,91,0.00,,,0.00,,2013-03-30 07:32:00,
2013-03-30 03:42:00,31.0,29.0,-100.00,WNW,290,0.0,0.0,91,0.00,,,0.00,,2013-03-30 07:42:00,
2013-03-30 03:52:00,31.0,29.0,-100.00,WNW,290,0.0,0.0,91,0.00,,,0.00,,2013-03-30 07:52:00,
2013-03-30 04:02:00,31.0,29.0,-100.00,WNW,290,0.0,0.0,92,0.00,,,0.00,,2013-03-30 08:02:00,
2013-03-30 04:12:00,31.0,29.0,-100.00,WNW,290,0.0,0.0,92,0.00,,,0.00,,2013-03-30 08:12:00,
2013-03-30 04:22:00,31.0,29.0,-100.00,WNW,290,0.0,0.0,92,0.00,,,0.00,,2013-03-30 08:22:00,
2013-03-30 04:32:00,32.0,30.0,-100.00,WNW,290,0.0,0.0,92,0.00,,,0.00,,2013-03-30 08:32:00,
2013-03-30 04:42:00,32.0,30.0,-100.00,WNW,290,0.0,0.0,92,0.00,,,0.00,,2013-03-30 08:42:00,
2013-03-30 04:52:00,32.0,29.0,-100.00,WNW,290,0.0,0.0,90,0.00,,,0.00,,2013-03-30 08:52:00,
2013-03-30 05:02:00,32.0,30.0,-100.00,WNW,290,0.0,0.0,91,0.00,,,0.00,,2013-03-30 09:02:00,
2013-03-30 05:12:00,32.0,30.0,-100.00,WNW,290,0.0,0.0,91,0.00,,,0.00,,2013-03-30 09:12:00,
2013-03-30 05:22:00,32.0,29.0,-100.00,WNW,290,0.0,0.0,90,0.00,,,0.00,,2013-03-30 09:22:00,
2013-03-30 05:43:00,31.0,29.0,-100.00,WNW,290,0.0,0.0,92,0.00,,,0.00,,2013-03-30 09:43:00,
2013-03-30 05:53:00,31.0,29.0,-100.00,WNW,290,0.0,0.0,93,0.00,,,0.00,,2013-03-30 09:53:00,
2013-03-30 06:03:00,34.0,31.0,-100.00,WNW,290,0.0,0.0,87,0.00,,,0.00,,2013-03-30 10:03:00,
2013-03-30 06:13:00,34.0,31.0,-100.00,WNW,290,0.0,0.0,87,0.00,,,0.00,,2013-03-30 10:13:00,
2013-03-30 06:23:00,34.0,30.0,-100.00,WNW,290,0.0,0.0,85,0.00,,,0.00,,2013-03-30 10:23:00,
2013-03-30 06:33:00,34.0,29.0,-100.00,WNW,290,0.0,0.0,83,0.00,,,0.00,,2013-03-30 10:33:00,
2013-03-30 06:42:00,34.0,29.0,-100.00,WNW,290,0.0,0.0,83,0.00,,,0.00,,2013-03-30 10:42:00,
2013-03-30 06:52:00,35.0,30.0,-100.00,WNW,290,0.0,0.0,81,0.00,,,0.00,,2013-03-30 10:52:00,
2013-03-30 07:04:00,35.0,29.0,-100.00,WNW,290,0.0,0.0,80,0.00,,,0.00,,2013-03-30 11:04:00,
2013-03-30 07:12:00,35.0,29.0,-100.00,WNW,290,0.0,0.0,80,0.00,,,0.00,,2013-03-30 11:12:00,
2013-03-30 07:23:00,36.0,30.0,-100.00,WNW,290,0.0,0.0,78,0.00,,,0.00,,2013-03-30 11:23:00,
2013-03-30 07:33:00,36.0,30.0,-100.00,WNW,290,0.0,0.0,78,0.00,,,0.00,,2013-03-30 11:33:00,
2013-03-30 07:42:00,36.0,30.0,-100.00,WNW,290,0.0,0.0,78,0.00,,,0.00,,2013-03-30 11:42:00,
2013-03-30 07:52:00,36.0,30.0,-100.00,WNW,290,0.0,0.0,79,0.00,,,0.00,,2013-03-30 11:52:00,
2013-03-30 08:02:00,35.0,29.0,-100.00,WNW,290,0.0,0.0,80,0.00,,,0.00,,2013-03-30 12:02:00,
2013-03-30 08:13:00,35.0,29.0,-100.00,WNW,290,0.0,0.0,80,0.00,,,0.00,,2013-03-30 12:13:00,
2013-03-30 08:22:00,36.0,30.0,-100.00,WNW,290,0.0,0.0,80,0.00,,,0.00,,2013-03-30 12:22:00,
2013-03-30 08:33:00,40.0,31.0,-100.00,WNW,290,0.0,0.0,70,0.00,,,0.00,,2013-03-30 12:33:00,
2013-03-30 08:42:00,40.0,31.0,-100.00,WNW,290,0.0,0.0,70,0.00,,,0.00,,2013-03-30 12:42:00,
2013-03-30 08:52:00,41.0,32.0,-100.00,WNW,290,0.0,0.0,69,0.00,,,0.00,,2013-03-30 12:52:00,
2013-03-30 09:02:00,42.0,31.0,-100.00,WNW,290,0.0,0.0,66,0.00,,,0.00,,2013-03-30 13:02:00,
2013-03-30 09:12:00,42.0,31.0,-100.00,WNW,290,0.0,0.0,66,0.00,,,0.00,,2013-03-30 13:12:00,
2013-03-30 09:22:00,43.0,31.0,-100.00,WNW,290,0.0,0.0,63,0.00,,,0.00,,2013-03-30 13:22:00,
2013-03-30 09:32:00,45.0,32.0,-100.00,WNW,290,0.0,0.0,61,0.00,,,0.00,,2013-03-30 13:32:00,
2013-03-30 09:43:00,45.0,32.0,-100.00,WNW,290,0.0,0.0,61,0.00,,,0.00,,2013-03-30 13:43:00,
2013-03-30 09:52:00,46.0,32.0,-100.00,WNW,290,0.0,0.0,58,0.00,,,0.00,,2013-03-30 13:52:00,
2013-03-30 10:03:00,48.0,32.0,-100.00,WNW,290,0.0,0.0,54,0.00,,,0.00,,2013-03-30 14:03:00,
2013-03-30 10:12:00,48.0,32.0,-100.00,WNW,290,0.0,0.0,54,0.00,,,0.00,,2013-03-30 14:12:00,
2013-03-30 10:23:00,48.0,31.0,-100.00,WNW,290,0.0,0.0,52,0.00,,,0.00,,2013-03-30 14:23:00,
2013-03-30 10:32:00,50.0,32.0,-100.00,WNW,290,0.0,0.0,49,0.00,,,0.00,,2013-03-30 14:32:00,
2013-03-30 10:42:00,50.0,32.0,-100.00,WNW,290,0.0,0.0,49,0.00,,,0.00,,2013-03-30 14:42:00,
2013-03-30 10:52:00,50.0,29.0,-100.00,WNW,290,0.0,0.0,45,0.00,,,0.00,,2013-03-30 14:52:00,
2013-03-30 11:03:00,50.0,31.0,-100.00,WNW,290,0.0,0.0,47,0.00,,,0.00,,2013-03-30 15:03:00,
2013-03-30 11:12:00,50.0,31.0,-100.00,WNW,290,0.0,0.0,47,0.00,,,0.00,,2013-03-30 15:12:00,
2013-03-30 11:23:00,50.0,30.0,-100.00,WNW,290,0.0,0.0,46,0.00,,,0.00,,2013-03-30 15:23:00,
2013-03-30 11:34:00,51.0,28.0,-100.00,WNW,290,0.0,0.0,41,0.00,,,0.00,,2013-03-30 15:34:00,
2013-03-30 11:43:00,51.0,28.0,-100.00,WNW,290,0.0,0.0,41,0.00,,,0.00,,2013-03-30 15:43:00,
2013-03-30 11:52:00,52.0,27.0,-100.00,WNW,290,0.0,0.0,38,0.00,,,0.00,,2013-03-30 15:52:00,
2013-03-30 12:03:00,53.0,27.0,-100.00,WNW,290,0.0,0.0,37,0.00,,,0.00,,2013-03-30 16:03:00,
2013-03-30 12:13:00,53.0,27.0,-100.00,WNW,290,0.0,0.0,36,0.00,,,0.00,,2013-03-30 16:13:00,
2013-03-30 12:23:00,53.0,27.0,-100.00,WNW,290,0.0,0.0,36,0.00,,,0.00,,2013-03-30 16:23:00,
2013-03-30 12:33:00,54.0,25.0,-100.00,WNW,290,0.0,0.0,32,0.00,,,0.00,,2013-03-30 16:33:00,
2013-03-30 12:43:00,54.0,25.0,-100.00,WNW,290,0.0,0.0,32,0.00,,,0.00,,2013-03-30 16:43:00,
2013-03-30 12:52:00,54.0,27.0,-100.00,WNW,290,0.0,0.0,35,0.00,,,0.00,,2013-03-30 16:52:00,
2013-03-30 13:02:00,54.0,27.0,-100.00,WNW,290,0.0,0.0,35,0.00,,,0.00,,2013-03-30 17:02:00,
2013-03-30 13:13:00,54.0,27.0,-100.00,WNW,290,0.0,0.0,35,0.00,,,0.00,,2013-03-30 17:13:00,
2013-03-30 13:23:00,54.0,27.0,-100.00,WNW,290,0.0,0.0,35,0.00,,,0.00,,2013-03-30 17:23:00,
2013-03-30 14:03:00,56.0,25.0,-100.00,WNW,290,0.0,0.0,30,0.00,,,0.00,,2013-03-30 18:03:00,
2013-03-30 14:13:00,57.0,24.0,-100.00,WNW,290,0.0,0.0,28,0.00,,,0.00,,2013-03-30 18:13:00,
2013-03-30 14:22:00,57.0,24.0,-100.00,WNW,290,0.0,0.0,28,0.00,,,0.00,,2013-03-30 18:22:00,
2013-03-30 14:33:00,56.0,24.0,-100.00,WNW,290,0.0,0.0,29,0.00,,,0.00,,2013-03-30 18:33:00,
2013-03-30 14:42:00,56.0,24.0,-100.00,WNW,290,0.0,0.0,29,0.00,,,0.00,,2013-03-30 18:42:00,
2013-03-30 14:53:00,57.0,24.0,-100.00,WNW,290,0.0,0.0,28,0.00,,,0.00,,2013-03-30 18:53:00,
2013-03-30 15:03:00,59.0,24.0,-100.00,WNW,290,0.0,0.0,26,0.00,,,0.00,,2013-03-30 19:03:00,
2013-03-30 15:13:00,59.0,24.0,-100.00,WNW,290,0.0,0.0,26,0.00,,,0.00,,2013-03-30 19:13:00,
2013-03-30 15:22:00,59.0,-99.9,-100.00,WNW,290,0.0,0.0,-999,0.00,,,0.00,,2013-03-30 19:22:00,
2013-03-30 15:32:00,59.0,21.0,-100.00,WNW,290,0.0,0.0,23,0.00,,,0.00,,2013-03-30 19:32:00,
2013-03-30 15:42:00,59.0,21.0,-100.00,WNW,290,0.0,0.0,23,0.00,,,0.00,,2013-03-30 19:42:00,
2013-03-30 15:52:00,59.0,22.0,-100.00,WNW,290,0.0,0.0,24,0.00,,,0.00,,2013-03-30 19:52:00,
2013-03-30 16:02:00,56.0,23.0,-100.00,WNW,290,0.0,0.0,28,0.00,,,0.00,,2013-03-30 20:02:00,
2013-03-30 16:12:00,56.0,23.0,-100.00,WNW,290,0.0,0.0,28,0.00,,,0.00,,2013-03-30 20:12:00,
2013-03-30 16:22:00,58.0,22.0,-100.00,WNW,298,0.0,0.0,25,0.00,,,0.00,,2013-03-30 20:22:00,
2013-03-30 16:33:00,58.0,20.0,-100.00,WNW,298,0.0,0.0,23,0.00,,,0.00,,2013-03-30 20:33:00,
2013-03-30 16:42:00,58.0,20.0,-100.00,WNW,298,0.0,0.0,23,0.00,,,0.00,,2013-03-30 20:42:00,
2013-03-30 16:52:00,58.0,19.0,-100.00,WNW,298,0.0,0.0,22,0.00,,,0.00,,2013-03-30 20:52:00,
2013-03-30 17:03:00,58.0,19.0,-100.00,WNW,298,0.0,0.0,22,0.00,,,0.00,,2013-03-30 21:03:00,
2013-03-30 17:12:00,58.0,19.0,-100.00,WNW,298,0.0,0.0,22,0.00,,,0.00,,2013-03-30 21:12:00,
2013-03-30 17:23:00,58.0,18.0,-100.00,WNW,298,0.0,0.0,21,0.00,,,0.00,,2013-03-30 21:23:00,
2013-03-30 17:34:00,58.0,19.0,-100.00,WNW,298,0.0,0.0,22,0.00,,,0.00,,2013-03-30 21:34:00,
2013-03-30 17:43:00,58.0,19.0,-100.00,WNW,298,0.0,0.0,22,0.00,,,0.00,,2013-03-30 21:43:00,
2013-03-30 17:53:00,58.0,19.0,-100.00,WNW,298,0.0,0.0,22,0.00,,,0.00,,2013-03-30 21:53:00,
2013-03-30 18:03:00,57.0,19.0,-100.00,WNW,298,0.0,0.0,22,0.00,,,0.00,,2013-03-30 22:03:00,
2013-03-30 18:13:00,57.0,19.0,-100.00,WNW,298,0.0,0.0,22,0.00,,,0.00,,2013-03-30 22:13:00,
2013-03-30 18:23:00,57.0,19.0,-100.00,WNW,298,0.0,0.0,22,0.00,,,0.00,,2013-03-30 22:23:00,
2013-03-30 18:33:00,57.0,20.0,-100.00,WNW,298,0.0,0.0,23,0.00,,,0.00,,2013-03-30 22:33:00,
2013-03-30 18:43:00,57.0,20.0,-100.00,WNW,298,0.0,0.0,23,0.00,,,0.00,,2013-03-30 22:43:00,
2013-03-30 18:53:00,56.0,20.0,-100.00,WNW,298,0.0,0.0,24,0.00,,,0.00,,2013-03-30 22:53:00,
2013-03-30 19:03:00,56.0,21.0,-100.00,WNW,298,0.0,0.0,25,0.00,,,0.00,,2013-03-30 23:03:00,
2013-03-30 19:12:00,56.0,21.0,-100.00,WNW,298,0.0,0.0,25,0.00,,,0.00,,2013-03-30 23:12:00,
2013-03-30 19:22:00,55.0,21.0,-100.00,WNW,298,0.0,0.0,26,0.00,,,0.00,,2013-03-30 23:22:00,
2013-03-30 19:33:00,54.0,21.0,-100.00,WNW,298,0.0,0.0,27,0.00,,,0.00,,2013-03-30 23:33:00,
2013-03-30 19:42:00,54.0,21.0,-100.00,WNW,298,0.0,0.0,27,0.00,,,0.00,,2013-03-30 23:42:00,
2013-03-30 19:52:00,54.0,22.0,-100.00,WNW,298,0.0,0.0,29,0.00,,,0.00,,2013-03-30 23:52:00,
2013-03-30 20:03:00,52.0,24.0,-100.00,WNW,298,0.0,0.0,33,0.00,,,0.00,,2013-03-31 00:03:00,
2013-03-30 20:12:00,52.0,24.0,-100.00,WNW,298,0.0,0.0,33,0.00,,,0.00,,2013-03-31 00:12:00,
2013-03-30 20:22:00,51.0,25.0,-100.00,WNW,298,0.0,0.0,36,0.00,,,0.00,,2013-03-31 00:22:00,
2013-03-30 20:32:00,48.0,24.0,-100.00,WNW,298,0.0,0.0,39,0.00,,,0.00,,2013-03-31 00:32:00,
2013-03-30 20:42:00,48.0,24.0,-100.00,WNW,298,0.0,0.0,39,0.00,,,0.00,,2013-03-31 00:42:00,
2013-03-30 20:52:00,47.0,25.0,-100.00,WNW,298,0.0,0.0,42,0.00,,,0.00,,2013-03-31 00:52:00,
2013-03-30 21:02:00,46.0,25.0,-100.00,WNW,298,0.0,0.0,44,0.00,,,0.00,,2013-03-31 01:02:00,
2013-03-30 21:12:00,46.0,25.0,-100.00,WNW,298,0.0,0.0,44,0.00,,,0.00,,2013-03-31 01:12:00,
2013-03-30 21:22:00,46.0,26.0,-100.00,WNW,298,0.0,0.0,45,0.00,,,0.00,,2013-03-31 01:22:00,
2013-03-30 21:32:00,45.0,26.0,-100.00,WNW,298,0.0,0.0,47,0.00,,,0.00,,2013-03-31 01:32:00,
2013-03-30 21:42:00,45.0,26.0,-100.00,WNW,298,0.0,0.0,47,0.00,,,0.00,,2013-03-31 01:42:00,
2013-03-30 21:52:00,45.0,26.0,-100.00,WNW,298,0.0,0.0,47,0.00,,,0.00,,2013-03-31 01:52:00,
2013-03-30 22:02:00,44.0,26.0,-100.00,WNW,298,0.0,0.0,49,0.00,,,0.00,,2013-03-31 02:02:00,
2013-03-30 22:13:00,44.0,26.0,-100.00,WNW,298,0.0,0.0,49,0.00,,,0.00,,2013-03-31 02:13:00,
2013-03-30 22:22:00,43.0,26.0,-100.00,WNW,298,0.0,0.0,51,0.00,,,0.00,,2013-03-31 02:22:00,
2013-03-30 22:33:00,42.0,26.0,-100.00,WNW,298,0.0,0.0,52,0.00,,,0.00,,2013-03-31 02:33:00,
2013-03-30 22:43:00,42.0,26.0,-100.00,WNW,298,0.0,0.0,52,0.00,,,0.00,,2013-03-31 02:43:00,
2013-03-30 22:52:00,42.0,26.0,-100.00,WNW,298,0.0,0.0,53,0.00,,,0.00,,2013-03-31 02:52:00,
2013-03-30 23:02:00,41.0,26.0,-100.00,WNW,298,0.0,0.0,54,0.00,,,0.00,,2013-03-31 03:02:00,
2013-03-30 23:13:00,41.0,26.0,-100.00,WNW,298,0.0,0.0,54,0.00,,,0.00,,2013-03-31 03:13:00,
2013-03-30 23:22:00,41.0,26.0,-100.00,WNW,298,0.0,0.0,54,0.00,,,0.00,,2013-03-31 03:22:00,
2013-03-30 23:33:00,40.0,26.0,-100.00,WNW,298,0.0,0.0,56,0.00,,,0.00,,2013-03-31 03:33:00,
2013-03-30 23:43:00,40.0,26.0,-100.00,WNW,298,0.0,0.0,56,0.00,,,0.00,,2013-03-31 03:43:00,
2013-03-30 23:53:00,40.0,26.0,-100.00,WNW,298,0.0,0.0,57,0.00,,,0.00,,2013-03-31 03:53:00,